Regional Weather Roundup
Issued by NWS Charleston, SC

Current Version | Previous Version | Text Only | Print | Product List | Glossary On
Versions: 1 2 3 4 5 6 7 8 9 10 11 12 13 14 15 16 17 18 19 20 21 22 23 24 25 26 27 28 29 30 31 32 33 34 35 36 37 38 39 40 41 42 43 44 45 46 47 48 49 50
000
ASUS42 KCHS 250026
RWRCHS

REGIONAL WEATHER ROUNDUP
NATIONAL WEATHER SERVICE CHARLESTON SC
800 PM EDT FRI APR 24 2015

NOTE: "FAIR" INDICATES FEW OR NO CLOUDS BELOW 12,000 FEET WITH NO
SIGNIFICANT WEATHER AND/OR OBSTRUCTIONS TO VISIBILITY.

NOT ALL STATIONS ARE QUALITY CONTROLLED BY THE NATIONAL
WEATHER SERVICE. USE DATA WITH CAUTION...ESPECIALLY
DEWPOINT OBSERVATIONS.

SCZ027-030-031-034>040-042>050-250100-
...SOUTHEAST SOUTH CAROLINA...

CITY           SKY/WX    TMP DP  RH WIND       PRES   REMARKS
N CHARLESTON   PTCLDY    61  43  51 S7        30.03R
6HR MIN TEMP:  61; 6HR MAX TEMP:  73;

WATERFRONT PRK   N/A     64 N/A N/A S7          N/A
MOUNT PLEASANT FAIR      57  46  67 MISG      30.03S
PINOPOLIS      NOT AVBL
MONCKS CORNER  FAIR      63  45  51 S3        30.02S
SUMMERVILLE    FAIR      63  46  55 CALM      30.03S
BEAUFORT MCAS  PTCLDY    64  48  56 S5        30.02F
6HR MIN TEMP:  64; 6HR MAX TEMP:  74;

BEAUFORT ARPT  FAIR      63  46  55 S3        30.02F
HILTON HEAD IS PTCLDY    61  46  59 S3        30.04S
WALTERBORO     CLEAR     61  45  55 SE7       30.03R
ALLENDALE      FAIR      64  48  55 CALM      29.99F

...SOUTHERN MIDLANDS AND PEE DEE...

CITY           SKY/WX    TMP DP  RH WIND       PRES   REMARKS
GEORGETOWN     NOT AVBL
KINGSTREE      NOT AVBL
ORANGEBURG     CLEAR     67  38  34 S3        30.00S
6HR MIN TEMP:  66; 6HR MAX TEMP:  73;

BARNWELL       FAIR      66  45  45 S3        30.00S
AIKEN          FAIR      63  37  39 CALM      30.02S
MANNING        FAIR      55  43  62 CALM      30.01S
COLUMBIA       MOCLDY    71  36  27 CALM      29.98S
6HR MIN TEMP:  68; 6HR MAX TEMP:  75;

SUMTER         MOCLDY    65  42  43 S3        29.97S
6HR MIN TEMP:  65; 6HR MAX TEMP:  73;

FLORENCE       CLEAR     64  37  36 SW6       29.99R
6HR MIN TEMP:  64; 6HR MAX TEMP:  73;

MYRTLE BEACH   CLEAR     63  39  42 S12       30.03R
N MYRTLE BEACH CLEAR     62  45  53 SW14      30.00R
6HR MIN TEMP:  61; 6HR MAX TEMP:  71;


$$

GAZ063-065-086>088-099>101-113>116-118-119-134>141-150-250100-
...SOUTHEAST GEORGIA...

CITY           SKY/WX    TMP DP  RH WIND       PRES   REMARKS
SAVANNAH ARPT  MOCLDY    64  43  46 S7        30.03S
6HR MIN TEMP:  64; 6HR MAX TEMP:  75;

HUNTER AAF     MOCLDY    64  46  52 SE5       30.01S
6HR MIN TEMP:  64; 6HR MAX TEMP:  72;

FORT STEWART   PTCLDY    65  48  54 SE6       30.00S
6HR MIN TEMP:  65; 6HR MAX TEMP:  75; 6HR PCP: TRACE;

STATESBORO       N/A     67  50  54 S6        30.00S
SYLVANIA       MOCLDY    67  49  52 CALM      30.01S
CLAXTON        FAIR      66  50  55 CALM      30.00S

...CSRA...CENTRAL AND FAR SOUTHEAST GEORGIA...

CITY           SKY/WX    TMP DP  RH WIND       PRES   REMARKS
THOMSON        CLOUDY    70  52  51 CALM      30.02F
AUGUSTA-BUSH   CLOUDY    67  45  45 S3        29.98F
6HR MIN TEMP:  66; 6HR MAX TEMP:  74;

AUGUSTA-DANIEL CLOUDY    72  37  28 S6        29.99F
SWAINSBORO     NOT AVBL
VIDALIA        MOCLDY    68  54  60 CALM      29.98F
EASTMAN        FAIR      69  60  72 CALM      29.99F
HAZLEHURST     FAIR      70  56  60 CALM      29.96F
ALMA           MOCLDY    71  51  49 E6        29.98F
6HR MIN TEMP:  71; 6HR MAX TEMP:  80;

WAYCROSS       MOCLDY    73  56  56 SE13      29.99S
JESUP          FAIR      68  54  60 SE5       30.01F
BAXLEY         FAIR      72  52  49 SE6       29.98F
BRUNSWICK      PTCLDY    64  50  59 CALM      30.03S
SAINT SIMONS   PTCLDY    65  49  56 E6        30.03F
6HR MIN TEMP:  65; 6HR MAX TEMP:  70;


$$

SCZ027-028-034-036>038-045-046-048>050-GAZ119-141-250100-
...LAKE AND SUPPLEMENTAL COASTAL OBSERVATIONS...

STATION/POSITION TIME  TEMP    WIND        PRES    WAVE   SWELL
                       AIR SEA DIR/SP/G            HT/PER HT/PER/DIR
                 (UTC) (F)     (DEG/KT/KT) (MB)    (FT/S) (FT/S/D)
UPR LAKE MARION  NOT AVBL
WINYAH BAY       2245   64     180/  7     1015.0
LAKE MURRAY      2300   69      CALM  /  1 1015.2R
ACE BASIN NERRS  NOT AVBL
FORT PULASKI     0000   64 71  130/  4/  6 1017.3F
SAPELO ISLAND    2300   68     110/  5     1017.0S

$$

ANZ835-935-AMZ111-154-330-350-352-354-370-450-454-472-250100-
...C-MAN AND BUOY OBSERVATIONS...

STATION/POSITION TIME  TEMP    WIND        PRES    WAVE   SWELL
                       AIR SEA DIR/SP/G            HT/PER HT/PER/DIR
                 (UTC) (F)     (DEG/KT/KT) (MB)    (FT/S) (FT/S/D)
BUOY 41004       2350   65 71  170/  6/  8 1016.8R   4/ 8   3/ 8
BUOY 41008       2350   66 69   90/ 10/ 10 1016.9F   4/ 8   3/ 70/ 8
FOLLY BEACH CMAN 0000   64     190/  7/  9 1017.0R
CAPERS NEARSHORE 2308   64     180/  8/ 12   N/A
FRIPP NEARSHORE  2300   66     160/  8/ 10 1016.8R


STATION/POSITION TIME  TEMP    WIND        PRES    WAVE   SWELL
                       AIR SEA DIR/SP/G            HT/PER HT/PER/DIR
                 (UTC) (F)     (DEG/KT/KT) (MB)    (FT/S) (FT/S/D)
5E ST. MARYS GA  2321      69                N/A     4/ 6   2/110/15
FRYING PAN BUOY  2350   63 71  200/  8/ 12 1016.7R   4/13   3/ 90/13
BUOY 41025       2350   58 73  180/  2/  4 1015.0S   5/ 8   5/ 50/ 8
CAPE LOOKOUT NC  0000   60     230/  5/  6 1014.6F
BUOY 41002       2350   63 71  360/ 10/ 14 1016.2R   7/ 7   7/350/ 7
BUOY 41010       2320   76 79   40/ 14/ 16 1015.2R
ST AUGUSTINE FL  0000   67 67  360/ 10/ 11 1017.0R


$$



USA.gov is the U.S. government's official web portal to all federal, state and local government web resources and services.